This demonstration page uses our WeatherBlox Daily Observations layout. Learn more.

41.55636, -103.73856

Hourly Observations for July 3, 2019

Temp ( °F °C ) Dew Point ( °F °C ) Humidity (%) Winds ( mph kmh ) Pressure ( in mb ) Visibility ( mi km ) Precip ( " mm )
12:53 am 00:53 Clear 63 17 N/A N/A E 6 9 29.77 1008 10 16.09344 0 0
1:53 am 01:53 Clear 64 18 N/A N/A ESE 8 13 29.74 1007 10 16.09344 0 0
2:53 am 02:53 Clear 66 19 N/A N/A E 12 19 29.71 1006 10 16.09344 0 0
3:53 am 03:53 Clear 66 19 N/A N/A E 10 17 29.71 1006 10 16.09344 0 0
4:53 am 04:53 Clear 64 18 N/A N/A ESE 8 13 29.71 1006 10 16.09344 0 0
5:53 am 05:53 Sunny 63 17 N/A N/A E 8 13 29.74 1007 10 16.09344 0 0
6:53 am 06:53 Sunny 66 19 N/A N/A E 9 15 29.74 1007 10 16.09344 0 0
7:53 am 07:53 Sunny 70 21 N/A N/A ESE 8 13 29.77 1008 10 16.09344 0 0
8:53 am 08:53 Sunny 75 24 N/A N/A E 9 15 29.77 1008 10 16.09344 0 0
9:53 am 09:53 Sunny 79 26 N/A N/A SE 13 20 29.74 1007 10 16.09344 0 0
10:53 am 10:53 Sunny 84 29 N/A N/A SE 14 22 29.74 1007 10 16.09344 0 0
11:53 am 11:53 Sunny 88 31 N/A N/A SSE 15 24 29.71 1006 10 16.09344 0 0
12:53 pm 12:53 Sunny 90 32 N/A N/A SSE 16 26 29.68 1005 10 16.09344 0 0
1:53 pm 13:53 Sunny 91 33 N/A N/A SSE 17 28 29.68 1005 10 16.09344 0 0
2:53 pm 14:53 Sunny 91 33 N/A N/A S 17 28 29.65 1004 10 16.09344 0 0
3:53 pm 15:53 Sunny 88 31 N/A N/A SSE 14 22 29.65 1004 10 16.09344 0 0
4:53 pm 16:53 Sunny 84 29 N/A N/A S 9 15 29.65 1004 10 16.09344 0 0
5:26 pm 17:26 Mostly Cloudy with Nearby Thunderstorms 79 26 N/A N/A NNW 28 44 29.59 1002 9 14.484096 0 0
5:53 pm 17:53 Mostly Cloudy with Nearby Thunderstorms 75 24 N/A N/A N 15 24 29.71 1006 10 16.09344 0 0
6:17 pm 18:17 Cloudy 88 31 N/A N/A NW 10 17 29.5 999 10 16.09344 0 0
6:40 pm 18:40 Mostly Cloudy with Nearby Thunderstorms 84 29 N/A N/A ESE 21 33 29.44 997 10 16.09344 0 0
6:53 pm 18:53 Partly Cloudy with Light Rain 86 30 N/A N/A VRB 7 11 29.59 1002 10 16.09344 0.001 0.001
7:48 pm 19:48 Sunny 79 26 N/A N/A SE 12 19 29.53 1000 10 16.09344 0.001 0.001
7:53 pm 19:53 Sunny 77 25 N/A N/A SE 13 20 29.62 1003 10 16.09344 0.001 0.001
8:51 pm 20:51 Clear with Nearby Thunderstorms 75 24 N/A N/A SSE 8 13 29.59 1002 10 16.09344 0 0
8:53 pm 20:53 Clear with Nearby Thunderstorms 75 24 N/A N/A SSE 9 15 29.65 1004 10 16.09344 0 0
9:06 pm 21:06 Partly Cloudy 73 23 N/A N/A SE 6 9 29.59 1002 10 16.09344 0 0
9:53 pm 21:53 Clear 73 23 N/A N/A E 10 17 29.71 1006 10 16.09344 0 0
10:53 pm 22:53 Mostly Clear 70 21 N/A N/A ENE 15 24 29.71 1006 10 16.09344 0 0
11:53 pm 23:53 Clear 70 21 N/A N/A E 12 19 29.71 1006 10 16.09344 0.001 0.001

Powered by AerisWeather